CAPE
0 0 0 0 0 0 0 0 0 0 0 0 0 0 0 0 0 0 0 68 121 183 170 17 10 82 410 686 854 843 783 738 686 698 720 733 736 723 708 703 681 636 608 589 639 676 723 767 804 885 985 1037 1024 1012 1028 1068 1094 1138 1178 1251 1402 1592 1580 1478 1465 1468 1517 1489 1433 1382 1442 1644 1796 1946 1888 1889 1920 1924 2019 1988 1836 1676 1863 1866 1359 1186
0 0 0 0 0 0 0 0 0 0 0 0 0 0 0 0 0 0 0 70 106 123 127 48 23 107 329 573 756 819 799 763 701 678 675 668 676 670 675 669 677 694 656 640 626 650 688 732 807 849 866 987 1072 1051 1027 1036 1065 1087 1114 1145 1254 1420 1541 1486 1423 1402 1508 1502 1446 1489 1545 1693 1875 2118 2313 2048 2048 2072 2058 2031 1982 2010 1875 1755 1685 1622
0 0 0 0 0 0 0 0 0 0 0 0 0 0 0 0 0 0 0 0 37 31 50 2 24 45 256 465 671 744 734 712 686 652 627 598 587 576 551 541 533 556 574 539 487 384 559 621 660 726 727 782 939 999 988 1026 1047 1074 1109 1114 1145 1266 1456 1497 1459 1392 1455 1523 1538 1516 1614 1765 1929 2072 2248 2089 2072 2020 2039 2077 2074 2003 1882 1886 1781 1672
0 0 0 0 0 0 0 0 0 0 0 0 0 0 0 0 0 0 0 0 0 0 0 0 18 13 141 374 520 654 715 665 669 646 639 568 469 127 125 111 92 64 110 163 144 438 538 594 596 617 630 658 732 836 904 970 1019 1052 1095 1104 1108 1190 1341 1440 1460 1536 1328 1508 1638 1625 1706 1786 1834 1916 2149 2041 2006 2058 2135 2159 2137 2061 2009 1906 1914 1777
0 0 0 0 0 0 0 0 0 0 0 0 0 0 0 0 0 0 0 0 0 0 0 0 2 1 15 293 394 498 585 605 594 616 601 544 411 87 85 70 52 92 86 182 398 500 588 663 676 614 574 578 642 690 802 895 959 1008 1038 1056 1085 1136 1251 1369 1511 1746 1321 1788 1728 1710 1766 1849 1833 1910 1959 1904 1865 1841 1918 2002 2018 2020 1994 1889 1974 1909
0 0 0 0 0 0 0 0 0 0 0 0 0 0 0 0 0 0 0 0 0 0 0 0 0 0 0 122 364 363 451 549 540 529 503 483 437 319 74 63 33 351 404 383 418 439 433 479 530 292 405 473 487 519 692 805 873 933 972 1008 1054 1114 1214 1336 1390 1644 1482 1984 1643 1755 1797 1860 1899 1866 1798 1702 1613 1667 1737 1787 1822 1886 1831 1861 2131 2229
0 0 0 0 0 0 0 0 0 0 0 0 0 0 0 0 0 0 0 0 0 0 0 0 0 0 0 2 131 320 361 442 447 458 460 448 417 387 334 104 66 43 188 237 233 228 280 210 294 392 440 552 600 571 577 725 801 869 936 1002 1072 1126 1221 1341 1403 1654 1680 1691 1654 1714 1782 1807 1835 1883 1877 1733 1509 1314 1406 1613 1661 1709 1890 2149 2419 2407
0 0 0 0 0 0 0 0 0 0 0 0 0 0 0 0 0 0 0 0 0 0 0 0 0 0 0 0 10 146 301 369 445 438 447 442 442 429 374 328 307 160 59 150 273 301 350 401 299 480 505 611 650 589 639 758 822 885 992 1086 1146 1187 1417 1366 1436 1645 1683 1650 1698 1745 1796 1832 1881 1945 1791 1596 1556 1206 1100 1484 1568 1530 1998 2516 2521 1693
0 0 0 0 0 0 0 0 0 0 0 0 0 0 0 0 0 0 0 0 0 0 0 0 0 0 0 0 0 5 147 252 309 382 442 434 439 446 406 402 382 361 369 368 327 404 384 366 308 415 588 652 651 600 733 811 948 996 1045 1221 1226 1255 1423 1428 1500 1661 1752 1675 1720 1784 1859 1956 2060 2035 1760 1589 1503 980 960 1394 1305 1613 2088 2308 1599 292
0 0 0 0 0 0 0 0 0 0 0 0 0 0 0 0 0 0 0 0 0 0 0 0 0 0 0 0 0 0 10 93 131 168 226 360 370 374 373 370 453 455 438 410 367 530 580 556 386 488 629 707 847 803 934 888 1088 1150 1169 1307 1326 1319 1406 1492 1539 1762 1788 1779 1773 1828 1956 2055 2064 1870 1677 1597 1487 938 818 742 1004 1467 1626 1216 210 3
0 0 0 0 0 0 0 0 0 0 0 0 0 0 0 0 0 0 0 0 0 0 0 0 0 0 0 0 0 0 17 88 80 92 113 159 238 299 324 348 423 498 499 455 405 588 671 664 637 618 672 780 934 962 1024 1099 1206 1295 1314 1358 1430 1411 1427 1557 1602 1724 1820 1894 1902 1987 2050 2010 1848 1672 1592 1505 1287 724 0 0 0 97 130 0 0 0
0 0 0 0 0 0 0 0 0 0 0 0 0 0 0 0 0 0 0 0 0 0 0 0 0 0 0 0 0 0 28 49 48 72 88 90 105 158 227 266 330 461 518 507 460 620 747 762 730 711 748 859 949 1082 1156 1215 1276 1406 1432 1432 1501 1486 1482 1589 1682 1755 1855 1944 2041 2068 1968 1769 1620 1516 1490 1483 1046 0 0 0 0 0 0 0 0 0
0 0 0 0 0 0 0 0 0 0 0 0 0 0 0 0 0 0 0 0 0 0 0 0 0 0 0 0 0 0 0 4 12 37 64 69 82 100 115 173 209 338 488 526 522 668 809 847 840 824 848 917 999 1177 1274 1322 1352 1444 1507 1511 1522 1547 1523 1551 1692 1812 1908 1987 2059 2060 1881 1671 1544 1499 1611 1474 798 0 0 0 0 0 0 0 0 0
0 0 0 0 0 0 0 0 0 0 0 0 0 0 0 0 0 0 0 0 0 0 0 0 0 0 0 0 0 0 0 0 0 14 24 18 23 45 104 127 165 198 396 514 559 734 896 951 928 920 929 969 1029 1212 1352 1423 1452 1469 1543 1568 1564 1583 1586 1616 1666 1765 1872 1947 1986 1994 1897 1777 1631 1565 1692 1440 512 0 0 0 0 0 0 0 0 0
0 0 0 0 0 0 0 0 0 0 0 0 0 0 0 0 0 0 0 0 0 0 0 0 0 0 0 0 0 0 0 0 0 0 0 0 0 5 15 78 116 171 318 465 578 763 930 1048 1052 1016 993 998 1084 1240 1400 1484 1570 1510 1539 1575 1611 1613 1635 1684 1734 1783 1815 1816 1853 1878 1905 1860 1674 1631 1764 1349 0 0 0 0 0 0 0 0 0 0
0 0 0 0 0 0 0 0 0 0 0 0 0 0 0 0 0 0 0 0 0 0 0 0 0 0 0 0 0 0 0 0 0 0 0 0 0 0 8 42 99 133 276 431 590 760 932 1082 1175 1159 1151 1142 1171 1295 1432 1543 1626 1627 1607 1570 1642 1683 1710 1778 1834 1870 1893 1835 1773 1836 1827 1801 1681 1727 1819 1285 272 0 0 0 0 0 0 0 0 0
0 0 0 0 0 0 0 0 0 0 0 0 0 0 0 0 0 0 0 0 0 0 0 0 0 0 0 0 0 0 0 0 0 0 0 0 0 0 9 30 76 117 249 443 599 747 915 1092 1267 1334 1334 1324 1334 1374 1503 1615 1678 1723 1720 1706 1754 1825 1888 1995 2020 1984 1941 1802 1755 1762 1780 1740 1725 1847 1868 1206 371 0 0 0 0 0 0 0 0 0
0 0 0 0 0 0 0 0 0 0 0 0 0 0 0 0 0 0 0 0 0 0 0 0 0 0 0 0 0 0 0 0 0 0 0 0 0 0 4 26 70 129 230 432 621 761 884 1049 1256 1409 1474 1486 1495 1523 1584 1694 1782 1833 1853 1875 1927 1982 2059 2075 2004 1926 1857 1808 1814 1842 1858 1828 1825 1911 1840 1203 716 167 0 0 0 0 0 0 0 0
0 0 0 0 0 0 0 0 0 0 0 0 0 0 0 0 0 0 0 0 0 0 0 0 0 0 0 0 0 0 0 0 0 0 0 0 0 0 2 16 53 144 216 377 622 781 912 1035 1182 1379 1510 1575 1613 1654 1693 1777 1881 1981 2051 2091 2073 2069 2044 2039 1979 1916 1856 1810 1828 1922 1989 1952 1914 1959 1811 1228 806 141 0 0 0 0 0 0 0 0
0 0 0 0 0 0 0 0 0 0 0 0 0 0 0 0 0 0 0 0 0 0 0 0 0 0 0 0 0 0 0 0 0 0 0 0 0 3 9 20 41 98 232 339 547 774 938 1054 1161 1331 1478 1559 1633 1694 1768 1840 1921 2011 2086 2123 2115 2063 2041 2013 2002 1932 1882 1862 1866 1914 2032 2037 1923 1932 1756 1230 754 86 0 0 0 0 0 0 0 0
0 0 0 0 0 0 0 0 0 0 0 0 0 0 0 0 0 0 0 0 0 0 0 0 0 0 0 0 0 0 0 0 0 0 0 0 0 0 4 19 42 72 237 331 480 692 912 1066 1169 1293 1428 1523 1588 1648 1727 1808 1905 1994 2057 2090 2096 2089 2055 2024 2000 1932 1868 1838 1836 1869 1990 2015 1968 2002 1847 1258 776 42 0 0 0 0 0 0 0 0
0 0 0 0 0 0 0 0 0 0 0 0 0 0 0 0 0 0 0 0 0 0 0 0 0 0 0 0 0 0 0 0 0 0 0 0 0 0 1 12 41 79 208 331 442 596 791 1016 1173 1269 1383 1504 1580 1653 1683 1769 1865 1957 2027 2064 2094 2103 2072 2032 1999 1936 1853 1789 1730 1786 1873 1945 1982 2006 1892 1212 605 0 0 0 0 0 0 0 0 0
0 0 0 0 0 0 0 0 0 0 0 0 0 0 0 0 0 0 0 0 0 0 0 0 0 0 0 0 0 0 0 0 0 0 0 0 0 0 0 1 30 69 197 311 435 555 715 895 1098 1245 1360 1490 1604 1676 1725 1766 1823 1900 1988 2038 2057 2062 2069 2031 1977 1894 1822 1742 1676 1654 1690 1820 1911 2026 1856 1098 0 0 0 0 0 0 0 0 0 0
0 0 0 0 0 0 0 0 0 0 0 0 0 0 0 0 0 0 0 0 0 0 0 0 0 0 0 0 0 0 0 0 0 0 0 0 0 0 0 0 6 36 201 296 411 576 717 845 1004 1177 1306 1448 1560 1659 1704 1746 1772 1839 1921 1988 2028 2031 2053 2044 1955 1854 1747 1643 1574 1527 1587 1730 1873 2002 1663 844 0 0 0 0 0 0 0 0 0 0
0 0 0 0 0 0 0 0 0 0 0 0 0 0 0 0 0 0 0 0 0 0 0 0 0 0 0 0 0 0 0 0 0 0 0 0 0 0 0 1 18 42 57 291 395 549 731 860 982 1104 1241 1358 1477 1579 1670 1739 1774 1796 1864 1919 1985 2021 2051 2045 1976 1840 1700 1566 1466 1420 1435 1546 1778 2006 1586 876 204 0 0 0 0 0 0 0 0 0
0 0 0 0 0 0 0 0 0 0 0 0 0 0 0 0 0 0 0 0 0 0 0 0 0 0 0 0 0 0 0 0 0 0 0 0 0 0 0 3 17 24 176 273 348 481 679 858 976 1086 1199 1285 1377 1477 1592 1709 1766 1801 1835 1852 1903 1983 2020 2059 2016 1894 1739 1603 1477 1380 1350 1445 1709 1850 1349 932 324 343 265 299 0 0 0 0 0 0
0 0 0 0 0 0 0 0 0 0 0 0 0 0 0 0 0 0 0 0 0 0 0 0 0 0 0 0 0 0 0 0 0 0 0 0 0 0 1 5 9 16 170 175 128 402 540 734 929 1078 1146 1223 1300 1382 1513 1643 1730 1768 1827 1834 1831 1892 1978 2031 2018 1926 1818 1716 1596 1447 1342 1368 1546 1757 1572 1122 432 380 326 275 86 0 0 0 0 0
0 0 0 0 0 0 0 0 0 0 0 0 0 0 0 0 0 0 0 0 0 0 0 0 0 0 0 0 0 0 0 0 0 0 0 0 0 0 2 0 89 3 3 228 281 352 454 590 762 900 1033 1137 1220 1312 1427 1542 1615 1676 1744 1797 1812 1841 1912 1981 1988 1948 1897 1812 1711 1614 1482 1378 1385 1778 1769 1244 559 527 350 187 0 0 0 0 0 0
0 0 0 0 0 0 0 0 0 0 0 0 0 0 0 0 0 0 0 0 0 0 0 0 0 0 0 0 0 0 0 0 0 0 0 2 3 0 0 0 8 8 0 43 293 351 408 516 599 703 798 899 1021 1165 1310 1405 1468 1534 1605 1651 1676 1736 1803 1883 1913 1910 1907 1890 1828 1740 1652 1552 1477 1433 1559 1341 513 422 345 44 0 28 0 0 0 0
0 0 0 0 0 0 0 0 0 0 0 0 0 0 0 0 0 0 0 0 0 0 0 0 0 0 0 0 0 0 0 0 0 0 0 0 0 0 0 0 124 160 196 153 0 0 148 469 505 563 615 692 782 901 1055 1197 1324 1396 1446 1490 1509 1583 1740 1814 1851 1874 1872 1859 1826 1775 1763 1682 1612 1490 1486 1070 749 286 201 0 0 0 0 12 11 31
0 0 34 0 0 0 0 0 0 0 0 0 0 0 0 0 0 0 0 0 0 0 0 0 0 0 0 0 0 0 0 0 0 0 0 0 0 0 0 0 184 184 196 263 18 0 288 412 448 482 536 561 604 667 801 969 1121 1245 1326 1375 1431 1635 1739 1782 1838 1848 1855 1848 1807 1792 1739 1718 1666 1552 1467 1342 1238 514 359 101 32 0 17 0 0 125
0 0 0 0 0 0 0 0 0 0 0 0 0 0 0 0 0 0 0 0 0 0 0 0 0 0 0 0 0 0 0 0 0 0 0 0 0 0 0 0 160 190 227 0 0 175 380 398 434 460 486 488 492 589 664 754 884 1028 1147 1232 1413 1630 1716 1780 1817 1838 1844 1857 1830 1781 1743 1751 1706 1666 1487 1146 1196 873 343 186 0 0 0 0 0 0
11 0 0 3 0 0 0 0 0 0 0 0 0 0 0 0 0 0 0 0 0 0 0 0 0 0 0 0 0 0 0 0 0 0 0 0 0 0 12 228 215 222 0 0 259 367 370 405 411 431 447 463 478 506 604 686 767 857 957 1084 1330 1521 1626 1718 1771 1809 1846 1850 1824 1758 1756 1758 1726 1669 1580 1526 1394 718 671 684 361 76 0 0 0 0
43 12 6 4 0 0 0 0 0 0 0 0 0 0 0 0 0 0 0 0 0 0 0 0 0 0 0 0 0 0 0 0 0 0 0 0 0 0 158 222 233 239 128 184 339 357 368 395 424 456 483 516 533 534 590 682 712 796 859 1016 1240 1428 1538 1626 1698 1743 1787 1805 1776 1741 1710 1686 1675 1587 1519 1333 1066 882 694 528 108 0 0 0 0 0
91 56 27 4 0 0 0 0 0 0 0 0 0 0 0 0 0 0 0 0 0 0 0 0 0 0 0 0 0 0 0 0 0 0 0 0 0 0 2 190 235 249 254 284 304 321 336 372 399 470 520 568 587 655 668 725 763 816 856 988 1172 1323 1432 1512 1578 1604 1670 1693 1684 1654 1625 1616 1537 1512 1389 1366 1092 624 610 312 211 0 0 0 138 1
86 59 32 9 0 0 0 0 0 0 0 0 0 0 4 0 0 1 4 3 2 0 0 0 0 0 0 0 0 2 1 0 0 0 0 0 0 0 0 137 203 208 282 303 350 404 464 510 572 617 657 652 699 726 735 813 855 899 950 1015 1146 1233 1332 1405 1448 1512 1542 1570 1591 1552 1541 1488 1443 1378 1353 1238 887 233 214 388 4 0 0 106 265 79
89 62 33 28 6 8 1 0 0 0 0 0 0 0 0 0 5 11 14 12 6 4 3 3 1 0 0 2 5 8 2 0 0 0 0 0 0 0 2 208 259 340 400 457 498 559 594 654 784 847 994 1023 999 981 913 900 948 1031 1079 1116 1172 1229 1288 1341 1395 1430 1459 1492 1491 1484 1478 1436 1392 1308 1247 1219 858 530 433 195 0 0 0 146 280 136
38 11 4 1 17 25 33 21 0 0 1 0 0 0 0 0 12 6 18 20 26 14 16 15 9 0 0 0 4 2 0 0 0 0 0 0 0 0 176 308 429 451 492 578 602 790 877 890 1157 1401 1451 1431 1305 1190 1110 1042 1098 1128 1184 1213 1237 1276 1322 1347 1402 1419 1437 1456 1461 1450 1449 1447 1404 1322 1212 920 427 488 54 0 5 4 30 310 360 190
20 17 19 0 27 26 36 27 17 0 0 0 0 0 36 71 51 34 13 25 19 13 13 16 17 2 0 1 1 0 0 0 0 0 8 260 274 76 343 466 495 461 369 194 248 400 835 1092 1238 1416 1375 1287 1233 1245 1254 1217 1187 1176 1177 1211 1236 1279 1305 1334 1361 1386 1397 1408 1419 1414 1453 1445 1402 1354 1276 1114 798 282 0 0 4 21 310 399 326 69
28 31 19 0 7 12 28 26 22 0 68 24 0 73 41 158 60 24 49 24 18 13 76 19 16 7 14 30 23 4 0 0 0 0 350 752 690 680 669 766 822 792 709 536 566 678 870 1099 943 1048 1311 1355 1339 1201 1238 1277 1258 1210 1206 1196 1230 1249 1241 1250 1267 1289 1294 1320 1340 1377 1408 1373 1336 1300 1250 1150 642 96 0 4 22 28 189 291 57 78
1 4 0 16 29 37 15 28 102 26 212 96 0 90 46 80 50 8 10 13 2 39 63 22 10 12 8 16 22 26 4 1 260 552 846 919 963 1064 1116 1116 1051 882 775 696 708 767 890 916 950 909 1164 1269 1326 1233 1223 1263 1243 1243 1282 1291 1258 1218 1187 1170 1168 1174 1206 1236 1272 1320 1329 1295 1275 1230 1158 998 642 129 14 6 9 7 154 112 174 160
0 0 3 8 36 38 27 12 29 227 100 132 213 116 73 0 0 0 14 0 110 20 110 18 19 10 12 1 0 23 166 572 774 800 988 1112 1225 1285 1276 1205 1109 1020 1121 1030 940 951 910 1020 976 936 992 1117 1350 1393 1307 1267 1312 1353 1330 1287 1238 1196 1163 1132 1174 1236 1206 1188 1193 1200 1196 1200 1162 1106 1103 883 486 9 4 0 0 335 380 376 340 320
2 0 4 0 12 8 0 7 21 260 76 203 76 42 17 1 0 42 1 38 104 110 86 109 123 224 304 378 442 519 656 734 846 904 962 1091 1228 1295 1254 1156 1176 1368 1394 1414 1268 1232 1202 1249 1113 952 1065 1120 1198 1358 1398 1463 1473 1439 1393 1283 1209 1160 1192 1243 1247 1227 1202 1139 1087 1067 1060 1038 1009 994 863 750 591 383 0 0 0 365 410 513 696 835
315 2 4 7 7 16 4 11 55 312 80 79 90 62 31 12 28 9 10 12 11 55 6 9 133 264 335 403 483 543 571 572 549 594 713 787 875 963 967 1074 1252 1334 1199 1207 1148 1324 1202 1267 1095 1160 1224 1343 1473 1538 1622 1630 1538 1456 1364 1315 1209 1264 1331 1277 1246 1193 1142 1083 1004 959 925 901 873 768 690 650 671 553 430 6 101 434 619 780 871 892
0 0 0 0 0 26 15 24 96 197 49 38 42 56 58 30 24 22 18 145 165 159 239 232 220 110 165 332 366 409 482 587 655 730 694 695 730 641 617 749 970 1189 1246 1188 1176 1079 1194 1159 1237 1277 1435 1584 1749 1794 1779 1669 1513 1422 1337 1234 1319 1438 1368 1299 1199 1126 1083 1008 957 881 822 780 730 697 656 652 624 452 370 2 0 213 430 623 734 848
84 0 0 6 0 9 19 1 47 32 10 40 6 12 36 34 8 34 30 30 248 345 368 367 336 287 219 194 257 287 231 341 464 573 720 919 977 944 913 958 822 1106 1163 1091 1051 1165 1256 1252 1349 1458 1574 1655 1713 1766 1636 1542 1446 1342 1239 1312 1397 1374 1284 1248 1167 1108 1051 931 893 836 769 733 711 701 680 722 681 474 496 120 4 163 416 514 691 872
74 36 71 0 5 0 32 0 53 24 7 8 58 0 2 20 67 29 0 2 5 18 14 0 3 185 353 388 395 383 296 54 330 462 619 637 715 763 959 1124 974 1007 1012 1135 1090 1226 1319 1436 1505 1637 1694 1788 1668 1616 1545 1429 1347 1244 1284 1446 1334 1194 1124 1138 1095 1060 1020 938 872 796 730 701 691 683 677 722 765 745 621 440 295 366 375 594 929 1022
231 61 2 0 173 0 0 127 4 5 23 39 32 16 5 22 84 24 41 22 8 13 46 40 10 28 28 36 40 38 60 68 70 77 271 660 579 796 700 1004 1207 1211 1114 1247 1464 1361 1423 1514 1604 1729 1756 1793 1699 1570 1447 1300 1243 1258 1467 1455 1263 1020 894 880 885 897 909 900 899 866 758 653 616 603 605 644 672 679 595 414 210 412 646 891 981 1056
166 95 415 0 0 0 0 0 0 0 10 25 10 0 0 0 4 39 40 58 38 33 11 35 50 62 40 48 76 67 23 1 0 34 196 443 583 661 564 733 825 984 1126 1135 1152 1213 1284 1420 1494 1646 1654 1694 1597 1536 1423 1298 1273 1420 1574 1396 1081 829 672 640 622 614 652 709 769 812 799 650 581 479 448 430 18 386 200 479 592 651 664 700 713 724
310 298 0 0 0 0 219 6 0 0 0 0 2 0 0 0 0 0 0 28 13 19 21 52 33 22 15 30 12 11 19 14 7 0 4 31 326 624 645 671 810 852 908 1000 1063 1103 1072 1108 1171 1232 1349 1414 1420 1408 1383 1341 1396 1554 1556 1273 934 686 573 486 410 403 447 509 635 801 830 690 375 34 0 0 0 99 0 1 0 0 98 397 449 422
312 49 8 1 0 12 1 286 62 0 0 0 0 0 0 0 0 0 0 0 0 1 3 51 30 20 11 2 0 0 8 12 29 30 24 26 329 722 931 888 842 800 818 937 902 961 1003 996 966 1094 1155 1188 1229 1304 1360 1380 1492 1625 1416 921 674 561 484 454 450 410 322 340 131 312 414 443 261 0 0 0 0 0 0 0 0 0 182 376 419 391
Wind_Speed
nan nan nan nan nan nan nan nan nan nan nan nan nan nan nan nan nan nan nan nan 8 4 13 nan nan nan 12 15 15 14 12 13 14 16 14 12 11 9 10 12 13 14 17 13 14 14 15 14 12 9 7 6 5 5 5 5 4 3 3 4 3 3 6 7 7 6 7 6 5 4 6 7 8 8 8 8 8 8 8 12 13 12 12 13 12 13
nan nan nan nan nan nan nan nan nan nan nan nan nan nan nan nan nan nan nan nan 7 3 8 nan nan 10 11 11 12 12 15 19 21 20 18 16 13 11 12 13 13 13 8 6 7 10 11 13 13 12 10 10 10 7 7 8 7 5 4 5 5 5 6 6 7 7 6 6 7 7 7 6 7 7 8 7 8 9 10 12 13 13 13 13 13 14
nan nan nan nan nan nan nan nan nan nan nan nan nan nan nan nan nan nan nan nan nan nan nan nan nan nan 9 9 10 16 22 22 22 23 21 16 13 11 11 13 13 9 7 5 8 8 10 12 13 12 12 12 13 12 11 10 8 6 5 5 5 6 6 6 6 6 7 6 7 7 7 8 7 5 7 8 8 10 12 12 14 14 14 15 15 15
nan nan nan nan nan nan nan nan nan nan nan nan nan nan nan nan nan nan nan nan nan nan nan nan nan nan 7 6 10 12 15 12 13 17 16 15 16 15 16 16 nan nan 10 9 8 8 7 9 10 10 11 12 11 10 10 10 10 7 6 5 6 6 6 6 6 6 7 8 8 8 9 9 10 9 10 10 11 13 13 13 14 15 17 17 17 18
nan nan nan nan nan nan nan nan nan nan nan nan nan nan nan nan nan nan nan nan nan nan nan nan nan nan nan 4 8 10 11 8 11 14 14 12 12 nan nan nan nan nan nan 9 8 7 6 7 9 11 11 10 11 11 12 11 10 8 9 8 9 8 8 7 7 8 9 11 13 14 14 14 14 13 13 13 12 13 13 14 15 16 18 19 19 19
nan nan nan nan nan nan nan nan nan nan nan nan nan nan nan nan nan nan nan nan nan nan nan nan nan nan nan 4 9 6 7 10 9 14 17 14 12 10 nan nan nan 13 11 11 10 10 10 9 8 7 9 11 11 11 11 12 12 11 10 10 10 9 9 9 10 12 13 13 15 16 16 15 14 14 15 15 14 14 15 16 17 18 20 22 22 22
nan nan nan nan nan nan nan nan nan nan nan nan nan nan nan nan nan nan nan nan nan nan nan nan nan nan nan nan 5 4 6 8 7 13 16 14 13 13 13 13 nan nan 14 10 7 7 10 10 10 10 10 11 12 12 10 10 11 12 12 12 13 12 12 12 14 16 16 17 17 18 18 18 18 18 15 15 16 18 18 20 22 22 23 24 26 25
nan nan nan nan nan nan nan nan nan nan nan nan nan nan nan nan nan nan nan nan nan nan nan nan nan nan nan nan nan 4 4 5 8 13 12 14 16 17 16 15 15 17 nan 14 12 10 11 13 13 13 12 12 13 12 11 10 11 12 12 14 14 14 15 16 18 19 20 21 20 20 20 20 21 21 20 20 19 20 23 24 25 26 26 26 26 28
nan nan nan nan nan nan nan nan nan nan nan nan nan nan nan nan nan nan nan nan nan nan nan nan nan nan nan nan nan nan 2 6 12 14 14 15 16 19 20 19 17 19 18 16 13 13 12 12 12 11 10 10 11 12 13 12 12 12 13 14 15 16 17 18 21 22 22 23 24 24 24 23 22 24 23 24 24 27 27 29 28 28 28 27 27 29
nan nan nan nan nan nan nan nan nan nan nan nan nan nan nan nan nan nan nan nan nan nan nan nan nan nan nan nan nan nan nan nan 14 15 15 15 17 19 22 22 19 17 15 15 15 14 14 12 11 11 10 11 11 12 12 12 13 14 15 15 16 16 18 19 21 23 24 24 25 26 26 27 26 26 27 29 29 29 29 30 29 29 29 29 29 nan
nan nan nan nan nan nan nan nan nan nan nan nan nan nan nan nan nan nan nan nan nan nan nan nan nan nan nan nan nan nan nan nan nan nan 7 9 14 19 23 26 23 19 16 15 16 16 17 15 13 12 12 13 13 13 13 12 13 15 16 17 18 18 19 21 23 24 25 26 26 27 28 29 29 29 30 30 29 29 nan nan nan nan 29 nan nan nan
nan nan nan nan nan nan nan nan nan nan nan nan nan nan nan nan nan nan nan nan nan nan nan nan nan nan nan nan nan nan nan nan nan nan nan nan 23 23 23 25 27 23 17 16 17 17 18 17 14 13 11 13 14 14 14 13 14 16 16 17 18 18 20 22 23 23 25 26 26 27 28 28 28 29 29 30 30 nan nan nan nan nan nan nan nan nan
nan nan nan nan nan nan nan nan nan nan nan nan nan nan nan nan nan nan nan nan nan nan nan nan nan nan nan nan nan nan nan nan nan nan nan nan nan 22 20 24 25 24 19 17 19 18 19 19 16 13 11 13 13 14 16 16 16 17 17 19 20 19 21 21 22 22 24 25 25 26 26 26 26 27 29 29 29 nan nan nan nan nan nan nan nan nan
nan nan nan nan nan nan nan nan nan nan nan nan nan nan nan nan nan nan nan nan nan nan nan nan nan nan nan nan nan nan nan nan nan nan nan nan nan nan 16 19 23 24 21 18 19 19 19 19 16 14 13 13 13 14 17 19 19 19 19 21 21 20 22 21 21 22 23 24 24 24 25 25 26 26 27 27 29 nan nan nan nan nan nan nan nan nan
nan nan nan nan nan nan nan nan nan nan nan nan nan nan nan nan nan nan nan nan nan nan nan nan nan nan nan nan nan nan nan nan nan nan nan nan nan nan nan nan 20 21 18 16 18 19 20 20 19 17 17 16 17 18 19 20 21 21 21 21 22 22 22 22 21 21 23 23 23 22 23 24 24 25 25 26 nan nan nan nan nan nan nan nan nan nan
nan nan nan nan nan nan nan nan nan nan nan nan nan nan nan nan nan nan nan nan nan nan nan nan nan nan nan nan nan nan nan nan nan nan nan nan nan nan nan nan nan 21 16 14 15 17 20 20 19 19 18 18 18 20 20 21 21 22 21 21 22 22 21 20 20 20 22 22 22 22 24 25 26 25 26 27 27 nan nan nan nan nan nan nan nan nan
nan nan nan nan nan nan nan nan nan nan nan nan nan nan nan nan nan nan nan nan nan nan nan nan nan nan nan nan nan nan nan nan nan nan nan nan nan nan nan nan nan 21 18 16 17 18 20 19 19 20 21 20 19 19 20 20 21 21 21 21 20 19 17 18 19 21 22 22 23 23 24 26 27 28 30 30 31 nan nan nan nan nan nan nan nan nan
nan nan nan nan nan nan nan nan nan nan nan nan nan nan nan nan nan nan nan nan nan nan nan nan nan nan nan nan nan nan nan nan nan nan nan nan nan nan nan nan nan 23 20 18 20 21 21 23 25 23 22 23 23 22 20 18 18 18 18 19 18 16 15 16 20 22 23 24 25 25 25 26 29 31 33 33 34 33 nan nan nan nan nan nan nan nan
nan nan nan nan nan nan nan nan nan nan nan nan nan nan nan nan nan nan nan nan nan nan nan nan nan nan nan nan nan nan nan nan nan nan nan nan nan nan nan nan nan 24 20 16 19 21 20 22 25 25 24 24 24 23 21 18 16 13 13 13 14 15 15 17 19 21 22 24 25 25 27 29 31 34 36 36 35 35 nan nan nan nan nan nan nan nan
nan nan nan nan nan nan nan nan nan nan nan nan nan nan nan nan nan nan nan nan nan nan nan nan nan nan nan nan nan nan nan nan nan nan nan nan nan nan nan nan nan nan 17 16 19 22 22 25 27 28 26 24 24 23 22 20 16 14 13 13 12 12 14 18 21 24 26 27 28 28 30 32 34 37 39 38 39 nan nan nan nan nan nan nan nan nan
nan nan nan nan nan nan nan nan nan nan nan nan nan nan nan nan nan nan nan nan nan nan nan nan nan nan nan nan nan nan nan nan nan nan nan nan nan nan nan nan nan nan 16 18 21 22 24 25 26 24 22 21 21 19 17 16 16 15 13 13 14 16 18 20 22 25 27 30 30 33 35 37 38 40 40 40 40 nan nan nan nan nan nan nan nan nan
nan nan nan nan nan nan nan nan nan nan nan nan nan nan nan nan nan nan nan nan nan nan nan nan nan nan nan nan nan nan nan nan nan nan nan nan nan nan nan nan nan nan 15 19 21 23 23 23 23 21 19 18 17 16 17 17 17 17 17 18 18 18 19 22 24 27 30 31 32 35 40 42 42 42 42 42 43 nan nan nan nan nan nan nan nan nan
nan nan nan nan nan nan nan nan nan nan nan nan nan nan nan nan nan nan nan nan nan nan nan nan nan nan nan nan nan nan nan nan nan nan nan nan nan nan nan nan nan nan 17 19 21 22 22 22 23 22 23 24 25 23 22 19 19 20 21 20 20 21 23 25 27 29 32 34 35 37 41 44 43 43 45 45 nan nan nan nan nan nan nan nan nan nan
nan nan nan nan nan nan nan nan nan nan nan nan nan nan nan nan nan nan nan nan nan nan nan nan nan nan nan nan nan nan nan nan nan nan nan nan nan nan nan nan nan nan 15 18 20 21 19 19 20 18 18 19 20 19 20 19 19 19 19 20 20 22 25 27 29 33 36 37 39 40 43 45 45 47 47 47 nan nan nan nan nan nan nan nan nan nan
nan nan nan nan nan nan nan nan nan nan nan nan nan nan nan nan nan nan nan nan nan nan nan nan nan nan nan nan nan nan nan nan nan nan nan nan nan nan nan nan nan nan nan 20 22 21 18 18 19 19 18 19 21 21 21 20 19 18 18 19 21 22 26 29 32 36 38 40 41 42 43 44 46 48 48 48 48 nan nan nan nan nan nan nan nan nan
nan nan nan nan nan nan nan nan nan nan nan nan nan nan nan nan nan nan nan nan nan nan nan nan nan nan nan nan nan nan nan nan nan nan nan nan nan nan nan nan nan nan 17 20 22 21 19 18 18 18 18 18 20 22 22 20 19 19 19 20 22 24 28 32 34 36 39 40 44 44 46 45 45 48 49 49 48 47 46 50 nan nan nan nan nan nan
nan nan nan nan nan nan nan nan nan nan nan nan nan nan nan nan nan nan nan nan nan nan nan nan nan nan nan nan nan nan nan nan nan nan nan nan nan nan nan nan nan nan 15 19 20 18 18 17 17 19 19 20 21 22 22 21 19 18 18 20 23 27 31 33 35 38 42 44 47 48 48 49 48 49 51 50 47 45 47 52 nan nan nan nan nan nan
nan nan nan nan nan nan nan nan nan nan nan nan nan nan nan nan nan nan nan nan nan nan nan nan nan nan nan nan nan nan nan nan nan nan nan nan nan nan nan nan nan nan nan 20 20 20 20 19 18 18 18 18 20 21 20 18 18 18 19 21 25 30 33 34 38 42 45 47 48 47 49 49 48 49 51 50 47 46 47 49 nan nan nan nan nan nan
nan nan nan nan nan nan nan nan nan nan nan nan nan nan nan nan nan nan nan nan nan nan nan nan nan nan nan nan nan nan nan nan nan nan nan nan nan nan nan nan nan nan nan nan 18 19 19 20 20 20 20 20 20 20 20 18 17 18 19 22 28 32 34 37 40 42 45 46 46 46 46 46 46 49 51 48 48 45 45 nan nan nan nan nan nan nan
nan nan nan nan nan nan nan nan nan nan nan nan nan nan nan nan nan nan nan nan nan nan nan nan nan nan nan nan nan nan nan nan nan nan nan nan nan nan nan nan 17 17 19 20 nan nan 20 20 22 22 22 23 23 22 21 19 19 22 24 27 31 33 34 38 39 42 42 44 45 44 46 46 45 50 53 52 50 44 46 nan nan nan nan nan nan nan
nan nan nan nan nan nan nan nan nan nan nan nan nan nan nan nan nan nan nan nan nan nan nan nan nan nan nan nan nan nan nan nan nan nan nan nan nan nan nan nan 20 21 21 20 nan nan 23 22 23 24 25 26 27 27 25 23 22 24 26 30 34 36 37 38 39 40 43 44 45 46 47 47 47 50 54 57 56 50 50 45 nan nan nan nan nan 26
nan nan nan nan nan nan nan nan nan nan nan nan nan nan nan nan nan nan nan nan nan nan nan nan nan nan nan nan nan nan nan nan nan nan nan nan nan nan nan nan 22 23 22 nan nan 27 26 26 26 26 26 27 28 29 28 27 27 29 30 33 36 38 39 38 40 43 45 47 48 48 50 49 49 51 52 55 56 52 46 36 nan nan nan nan nan nan
nan nan nan nan nan nan nan nan nan nan nan nan nan nan nan nan nan nan nan nan nan nan nan nan nan nan nan nan nan nan nan nan nan nan nan nan nan nan nan 26 25 22 nan nan 29 27 27 28 28 28 29 30 32 33 33 34 34 33 34 37 37 40 41 41 43 46 48 50 50 50 51 50 49 50 50 54 55 47 36 30 29 nan nan nan nan nan
nan nan nan nan nan nan nan nan nan nan nan nan nan nan nan nan nan nan nan nan nan nan nan nan nan nan nan nan nan nan nan nan nan nan nan nan nan nan 29 30 28 27 29 30 30 29 29 30 31 31 33 36 37 37 37 38 38 36 36 38 40 42 43 45 45 48 50 51 51 50 50 50 50 51 50 52 51 41 32 31 32 nan nan nan nan nan
nan nan nan nan nan nan nan nan nan nan nan nan nan nan nan nan nan nan nan nan nan nan nan nan nan nan nan nan nan nan nan nan nan nan nan nan nan nan nan 33 34 34 34 35 34 33 33 33 34 35 35 36 38 39 40 38 37 40 41 42 43 42 45 46 49 49 51 52 51 50 49 50 52 53 55 55 47 35 33 33 32 nan nan nan 31 nan
nan nan nan nan nan nan nan nan nan nan nan nan nan nan nan nan nan nan nan nan nan nan nan nan nan nan nan nan nan nan nan nan nan nan nan nan nan nan nan 33 35 38 37 35 37 34 35 35 37 38 38 40 43 42 41 41 42 44 43 44 45 45 47 50 51 53 53 52 51 50 49 51 54 56 57 55 42 32 34 36 nan nan nan 33 30 nan
nan nan nan nan nan nan nan nan nan nan nan nan nan nan nan nan nan nan nan nan nan nan nan nan nan nan nan nan nan nan nan nan nan nan nan nan nan nan nan 33 37 36 35 34 35 35 35 37 40 42 44 45 45 45 43 45 46 46 47 46 46 47 49 51 53 54 55 53 51 50 50 53 55 57 59 53 40 35 37 37 nan nan nan 30 29 29
nan nan nan nan nan nan nan nan nan nan nan nan nan nan nan nan nan nan nan nan nan nan nan nan nan nan nan nan nan nan nan nan nan nan nan nan nan nan 39 36 34 35 34 37 36 38 41 43 45 45 48 49 47 45 46 47 48 48 48 48 48 49 50 52 53 55 55 52 49 49 51 54 56 57 56 51 45 41 nan nan nan nan nan 27 28 28
nan nan nan nan nan nan nan nan nan nan nan nan nan nan nan nan nan nan nan nan nan nan nan nan nan nan nan nan nan nan nan nan nan nan nan 34 37 nan 42 39 38 39 36 34 37 42 43 44 46 48 49 51 51 47 48 49 50 50 49 50 50 50 52 54 55 56 56 52 48 49 52 55 56 56 56 52 49 47 nan nan nan nan 28 27 28 nan
nan nan nan nan nan nan nan nan nan nan nan nan nan nan nan 49 nan nan nan nan nan nan nan nan nan nan nan nan nan nan nan nan nan nan 34 34 38 38 37 40 40 40 40 40 43 43 45 46 49 50 50 50 49 49 51 52 52 53 54 53 53 53 55 54 54 54 53 50 49 50 53 54 54 52 51 49 48 nan nan nan nan nan 32 31 nan nan
nan nan nan nan nan nan nan nan 39 nan 31 nan nan nan nan nan nan nan nan nan nan nan nan nan nan nan nan nan nan nan nan nan 37 35 36 34 42 41 41 41 42 44 46 47 47 47 50 50 51 52 52 50 50 50 51 53 55 56 56 56 56 55 55 54 54 55 52 49 50 52 53 52 50 49 47 47 48 47 nan nan nan nan 37 33 31 28
nan nan nan nan nan nan nan nan nan 33 31 32 33 36 nan nan nan nan nan nan 39 nan 41 nan nan nan nan nan nan nan 51 52 50 47 47 46 44 40 42 44 48 51 50 50 49 50 50 50 52 53 53 52 53 53 55 56 57 57 57 58 57 56 55 53 52 51 50 50 51 52 51 49 46 45 46 46 49 nan nan nan nan 37 35 28 25 26
nan nan nan nan nan nan nan nan nan 36 nan 44 nan nan nan nan nan nan nan nan 41 44 nan 50 51 51 56 57 57 59 59 55 53 53 52 48 49 49 48 48 48 48 47 48 50 48 50 51 52 53 53 53 54 55 56 58 57 56 57 55 53 53 51 49 49 49 49 50 50 48 47 46 46 47 46 48 51 52 nan nan nan 34 31 26 25 29
38 nan nan nan nan nan nan nan nan 37 nan nan nan nan nan nan nan nan nan nan nan nan nan nan 50 46 50 55 56 57 53 51 49 50 52 49 47 46 47 45 44 44 46 47 49 49 50 51 51 52 53 54 55 57 58 58 57 55 54 50 47 48 48 48 48 49 49 49 48 47 46 46 46 48 48 50 53 50 45 nan 37 34 32 30 29 33
nan nan nan nan nan nan nan nan nan 42 nan nan nan nan nan nan nan nan nan 43 45 47 42 49 48 43 43 48 52 53 52 49 47 47 46 41 41 42 41 39 41 43 44 47 48 48 50 53 55 55 55 55 58 60 61 59 56 53 51 45 44 46 46 46 47 47 47 47 46 46 45 46 47 48 48 51 53 45 36 nan nan 34 32 33 35 37
nan nan nan nan nan nan nan nan nan nan nan nan nan nan nan nan nan nan nan nan 48 46 45 45 43 45 43 43 50 48 48 47 50 46 44 42 42 40 39 39 40 43 45 47 48 50 54 57 59 61 61 58 58 59 57 54 52 51 46 43 43 44 45 46 46 45 45 44 44 45 45 47 47 47 47 49 46 39 33 33 nan 30 32 35 37 39
nan nan nan nan nan nan nan nan nan nan nan nan nan nan nan nan nan nan nan nan nan nan nan nan nan 46 45 44 45 45 45 nan 46 43 42 42 42 41 41 41 41 44 45 47 49 54 57 60 62 63 63 59 54 52 49 47 47 47 46 43 43 44 45 45 45 45 44 44 44 44 45 47 46 45 44 43 37 31 29 29 30 30 33 35 39 41
40 nan nan nan 45 nan nan 32 nan nan nan nan nan nan nan nan nan nan nan nan nan nan nan nan nan nan nan nan nan nan nan nan nan nan 43 42 41 42 43 45 46 48 49 52 54 57 59 60 60 59 57 54 49 48 46 44 44 45 44 43 43 44 44 44 43 44 44 45 44 44 45 46 49 48 45 43 41 39 37 34 34 35 35 37 40 42
34 nan 46 nan nan nan nan nan nan nan nan nan nan nan nan nan nan nan nan nan nan nan nan nan nan nan nan nan nan nan nan nan nan nan 48 46 45 43 42 44 46 49 52 55 54 54 53 53 52 51 49 46 43 44 44 45 44 44 44 44 44 44 44 43 44 44 44 44 45 45 44 46 47 47 46 46 nan 46 43 39 38 40 42 40 40 40
38 42 nan nan nan nan 43 nan nan nan nan nan nan nan nan nan nan nan nan nan nan nan nan nan nan nan nan nan nan nan nan nan nan nan nan nan 41 40 39 41 42 45 45 45 48 49 48 47 48 46 44 42 42 44 45 46 45 44 43 43 43 44 45 45 45 45 44 44 45 45 47 49 48 nan nan nan nan nan nan nan nan nan nan 43 40 39
35 nan nan nan nan nan nan 42 nan nan nan nan nan nan nan nan nan nan nan nan nan nan nan nan nan nan nan nan nan nan nan nan nan nan nan nan 39 36 35 36 36 35 35 36 40 41 43 43 43 44 43 42 42 43 44 43 43 42 42 43 43 44 45 46 46 44 44 44 46 47 48 51 53 nan nan nan nan nan nan nan nan nan 48 45 42 41
Wind_Direction
nan nan nan nan nan nan nan nan nan nan nan nan nan nan nan nan nan nan nan nan 71 103 75 nan nan nan 41 28 25 22 15 25 25 20 19 15 14 29 51 59 61 60 55 44 30 23 18 14 10 6 354 351 346 350 342 333 333 324 316 297 326 311 303 310 317 325 330 334 337 335 1 12 6 358 349 345 341 331 330 310 317 335 329 324 329 323
nan nan nan nan nan nan nan nan nan nan nan nan nan nan nan nan nan nan nan nan 104 67 108 nan nan 78 63 48 35 25 14 23 25 21 19 15 11 15 24 37 44 52 77 75 54 36 22 17 16 6 356 350 349 349 335 341 345 344 331 324 340 305 308 325 334 335 333 332 335 329 348 342 340 341 336 342 336 340 316 318 322 328 322 324 327 322
nan nan nan nan nan nan nan nan nan nan nan nan nan nan nan nan nan nan nan nan nan nan nan nan nan nan 107 75 42 22 19 20 20 18 15 6 6 10 17 24 28 24 36 38 48 41 26 17 15 9 5 2 0 351 347 345 339 341 336 336 322 309 316 330 333 327 332 319 319 325 318 329 314 322 320 322 317 311 312 315 319 320 320 318 320 320
nan nan nan nan nan nan nan nan nan nan nan nan nan nan nan nan nan nan nan nan nan nan nan nan nan nan 137 92 56 41 28 21 18 19 15 10 6 5 13 10 nan nan 10 13 13 25 28 15 11 8 9 10 359 354 347 340 343 332 333 328 320 315 316 323 329 324 317 314 302 291 292 299 292 297 295 290 288 300 301 314 315 316 320 320 319 322
nan nan nan nan nan nan nan nan nan nan nan nan nan nan nan nan nan nan nan nan nan nan nan nan nan nan nan 72 63 41 28 20 10 16 17 16 17 nan nan nan nan nan nan 360 357 358 359 0 5 4 6 0 2 358 350 343 338 323 340 334 326 317 319 316 315 310 294 278 268 266 261 269 270 264 275 288 294 302 306 303 315 322 319 318 317 318
nan nan nan nan nan nan nan nan nan nan nan nan nan nan nan nan nan nan nan nan nan nan nan nan nan nan nan 77 57 14 3 19 357 9 21 16 15 1 nan nan nan 4 352 350 355 354 351 350 341 341 348 354 358 358 352 343 338 327 325 323 316 310 307 310 308 303 293 294 291 286 290 293 296 302 297 307 312 307 309 317 313 316 318 316 315 315
nan nan nan nan nan nan nan nan nan nan nan nan nan nan nan nan nan nan nan nan nan nan nan nan nan nan nan nan 75 2 9 19 358 19 22 15 15 2 5 10 nan nan 358 355 351 335 332 337 336 340 345 349 349 355 339 329 326 324 318 317 316 313 309 306 302 303 298 298 299 308 310 309 310 310 305 300 303 309 313 309 312 316 313 314 313 312
nan nan nan nan nan nan nan nan nan nan nan nan nan nan nan nan nan nan nan nan nan nan nan nan nan nan nan nan nan 320 8 33 35 39 26 20 15 8 4 8 10 8 nan 354 355 345 340 335 340 347 346 341 348 334 318 319 313 317 316 309 312 307 308 305 303 306 305 306 306 307 308 307 306 308 308 304 306 307 306 311 314 310 310 310 308 307
nan nan nan nan nan nan nan nan nan nan nan nan nan nan nan nan nan nan nan nan nan nan nan nan nan nan nan nan nan nan 10 46 50 43 36 31 18 10 8 7 7 6 2 357 352 353 347 340 336 327 330 338 327 317 315 314 311 309 308 306 304 308 306 305 308 309 309 308 309 309 306 306 303 304 305 300 299 304 306 309 305 307 306 304 304 304
nan nan nan nan nan nan nan nan nan nan nan nan nan nan nan nan nan nan nan nan nan nan nan nan nan nan nan nan nan nan nan nan 61 48 45 35 20 13 10 7 6 3 3 5 3 354 346 336 324 319 312 312 321 309 305 306 302 300 298 302 304 308 303 303 308 308 310 310 307 308 307 309 306 302 298 299 303 305 304 305 304 303 302 302 300 nan
nan nan nan nan nan nan nan nan nan nan nan nan nan nan nan nan nan nan nan nan nan nan nan nan nan nan nan nan nan nan nan nan nan nan 72 41 19 15 7 1 4 6 3 1 360 354 345 329 313 300 314 319 305 295 299 299 299 299 301 305 309 312 303 301 307 308 311 310 309 309 310 310 309 308 306 305 305 304 nan nan nan nan 303 nan nan nan
nan nan nan nan nan nan nan nan nan nan nan nan nan nan nan nan nan nan nan nan nan nan nan nan nan nan nan nan nan nan nan nan nan nan nan nan 12 10 360 356 2 2 356 352 351 349 338 318 308 298 306 308 309 297 301 304 304 305 307 308 315 312 308 304 308 312 313 313 313 311 311 314 314 314 313 316 316 nan nan nan nan nan nan nan nan nan
nan nan nan nan nan nan nan nan nan nan nan nan nan nan nan nan nan nan nan nan nan nan nan nan nan nan nan nan nan nan nan nan nan nan nan nan nan 9 356 349 350 352 347 345 348 342 333 334 331 320 316 306 306 309 311 311 310 309 310 315 318 318 310 310 311 317 318 316 315 314 314 316 316 320 320 319 317 nan nan nan nan nan nan nan nan nan
nan nan nan nan nan nan nan nan nan nan nan nan nan nan nan nan nan nan nan nan nan nan nan nan nan nan nan nan nan nan nan nan nan nan nan nan nan nan 346 332 338 345 344 345 342 340 340 344 341 331 320 314 309 310 312 313 312 311 311 314 318 319 312 311 314 320 320 319 317 315 316 317 318 323 321 319 317 nan nan nan nan nan nan nan nan nan
nan nan nan nan nan nan nan nan nan nan nan nan nan nan nan nan nan nan nan nan nan nan nan nan nan nan nan nan nan nan nan nan nan nan nan nan nan nan nan nan 329 337 341 342 338 343 351 353 345 332 323 314 311 310 308 307 310 310 313 313 317 316 316 318 321 318 319 315 315 316 317 318 319 322 321 318 nan nan nan nan nan nan nan nan nan nan
nan nan nan nan nan nan nan nan nan nan nan nan nan nan nan nan nan nan nan nan nan nan nan nan nan nan nan nan nan nan nan nan nan nan nan nan nan nan nan nan nan 330 342 350 349 354 359 352 342 331 323 316 311 311 305 307 305 307 311 310 315 321 320 321 320 317 314 314 314 317 318 321 321 318 313 308 304 nan nan nan nan nan nan nan nan nan
nan nan nan nan nan nan nan nan nan nan nan nan nan nan nan nan nan nan nan nan nan nan nan nan nan nan nan nan nan nan nan nan nan nan nan nan nan nan nan nan nan 328 340 347 352 352 353 347 342 335 330 326 324 319 319 318 313 314 309 307 315 319 318 321 320 314 312 315 318 321 320 318 316 313 310 306 303 nan nan nan nan nan nan nan nan nan
nan nan nan nan nan nan nan nan nan nan nan nan nan nan nan nan nan nan nan nan nan nan nan nan nan nan nan nan nan nan nan nan nan nan nan nan nan nan nan nan nan 325 331 341 348 346 344 349 347 341 338 338 337 339 336 331 320 312 308 310 315 315 322 320 314 315 316 320 321 319 320 317 314 309 304 301 303 301 nan nan nan nan nan nan nan nan
nan nan nan nan nan nan nan nan nan nan nan nan nan nan nan nan nan nan nan nan nan nan nan nan nan nan nan nan nan nan nan nan nan nan nan nan nan nan nan nan nan 312 312 326 339 333 335 342 343 342 343 341 341 342 342 335 321 312 310 313 316 327 330 316 305 308 311 316 313 312 316 314 309 302 301 303 305 304 nan nan nan nan nan nan nan nan
nan nan nan nan nan nan nan nan nan nan nan nan nan nan nan nan nan nan nan nan nan nan nan nan nan nan nan nan nan nan nan nan nan nan nan nan nan nan nan nan nan nan 315 326 329 330 336 342 342 343 343 339 338 338 342 339 331 336 333 324 325 321 306 304 315 316 317 316 312 313 313 310 304 305 308 311 310 nan nan nan nan nan nan nan nan nan
nan nan nan nan nan nan nan nan nan nan nan nan nan nan nan nan nan nan nan nan nan nan nan nan nan nan nan nan nan nan nan nan nan nan nan nan nan nan nan nan nan nan 314 318 323 326 333 338 339 340 342 341 334 330 328 331 343 349 332 333 334 329 325 322 318 315 318 315 320 319 315 308 310 313 313 313 308 nan nan nan nan nan nan nan nan nan
nan nan nan nan nan nan nan nan nan nan nan nan nan nan nan nan nan nan nan nan nan nan nan nan nan nan nan nan nan nan nan nan nan nan nan nan nan nan nan nan nan nan 307 313 318 323 329 334 334 336 340 336 331 335 340 348 351 350 347 348 341 334 326 324 319 321 321 316 316 319 319 322 321 317 313 311 304 nan nan nan nan nan nan nan nan nan
nan nan nan nan nan nan nan nan nan nan nan nan nan nan nan nan nan nan nan nan nan nan nan nan nan nan nan nan nan nan nan nan nan nan nan nan nan nan nan nan nan nan 302 308 314 319 326 330 332 337 345 350 357 1 359 354 352 352 352 346 335 333 333 328 326 319 313 314 320 326 327 324 322 315 312 309 nan nan nan nan nan nan nan nan nan nan
nan nan nan nan nan nan nan nan nan nan nan nan nan nan nan nan nan nan nan nan nan nan nan nan nan nan nan nan nan nan nan nan nan nan nan nan nan nan nan nan nan nan 292 300 303 309 318 321 327 332 340 351 359 0 357 353 351 349 342 337 332 334 333 325 319 315 313 315 325 329 325 323 319 316 313 313 nan nan nan nan nan nan nan nan nan nan
nan nan nan nan nan nan nan nan nan nan nan nan nan nan nan nan nan nan nan nan nan nan nan nan nan nan nan nan nan nan nan nan nan nan nan nan nan nan nan nan nan nan nan 290 296 303 301 310 325 338 343 350 355 357 355 353 349 342 335 327 329 331 327 319 312 312 315 322 328 327 323 319 316 317 318 317 314 nan nan nan nan nan nan nan nan nan
nan nan nan nan nan nan nan nan nan nan nan nan nan nan nan nan nan nan nan nan nan nan nan nan nan nan nan nan nan nan nan nan nan nan nan nan nan nan nan nan nan nan 293 291 286 288 310 321 326 329 335 342 348 351 350 350 348 342 334 332 328 325 315 315 313 314 317 325 326 325 324 317 317 320 320 318 315 312 307 302 nan nan nan nan nan nan
nan nan nan nan nan nan nan nan nan nan nan nan nan nan nan nan nan nan nan nan nan nan nan nan nan nan nan nan nan nan nan nan nan nan nan nan nan nan nan nan nan nan 289 289 294 299 290 298 326 332 333 339 342 344 344 343 342 335 330 330 325 317 310 310 310 312 319 324 327 326 325 322 324 324 322 319 316 309 304 302 nan nan nan nan nan nan
nan nan nan nan nan nan nan nan nan nan nan nan nan nan nan nan nan nan nan nan nan nan nan nan nan nan nan nan nan nan nan nan nan nan nan nan nan nan nan nan nan nan nan 267 276 294 316 322 324 330 334 334 338 337 336 333 330 327 324 327 316 305 305 307 310 314 321 326 329 328 326 325 327 323 318 316 316 313 307 304 nan nan nan nan nan nan
nan nan nan nan nan nan nan nan nan nan nan nan nan nan nan nan nan nan nan nan nan nan nan nan nan nan nan nan nan nan nan nan nan nan nan nan nan nan nan nan nan nan nan nan 300 301 305 317 325 330 330 334 332 332 331 322 319 316 318 318 308 309 312 309 310 315 322 327 329 329 324 322 324 321 310 311 313 309 303 nan nan nan nan nan nan nan
nan nan nan nan nan nan nan nan nan nan nan nan nan nan nan nan nan nan nan nan nan nan nan nan nan nan nan nan nan nan nan nan nan nan nan nan nan nan nan nan 303 305 303 304 nan nan 303 312 316 321 320 318 324 330 323 318 320 327 330 321 311 312 309 308 311 315 322 327 326 321 322 325 323 318 314 317 309 302 293 nan nan nan nan nan nan nan
nan nan nan nan nan nan nan nan nan nan nan nan nan nan nan nan nan nan nan nan nan nan nan nan nan nan nan nan nan nan nan nan nan nan nan nan nan nan nan nan 311 308 304 300 nan nan 299 303 305 307 313 317 319 322 324 318 316 319 322 317 318 318 313 311 312 318 323 327 324 323 323 325 325 322 322 320 312 303 296 293 nan nan nan nan nan 315
nan nan nan nan nan nan nan nan nan nan nan nan nan nan nan nan nan nan nan nan nan nan nan nan nan nan nan nan nan nan nan nan nan nan nan nan nan nan nan nan 304 301 298 nan nan 291 297 303 305 309 311 309 307 307 310 311 306 308 318 318 321 320 317 314 315 321 325 326 324 324 326 327 325 324 321 318 315 306 302 306 nan nan nan nan nan nan
nan nan nan nan nan nan nan nan nan nan nan nan nan nan nan nan nan nan nan nan nan nan nan nan nan nan nan nan nan nan nan nan nan nan nan nan nan nan nan 291 288 289 nan nan 289 296 302 305 304 302 298 297 302 303 306 307 307 314 318 321 321 316 319 319 320 324 327 326 325 325 325 324 323 322 319 319 319 315 309 315 320 nan nan nan nan nan
nan nan nan nan nan nan nan nan nan nan nan nan nan nan nan nan nan nan nan nan nan nan nan nan nan nan nan nan nan nan nan nan nan nan nan nan nan nan 278 283 285 282 278 280 286 291 290 290 292 295 298 301 307 311 309 307 311 311 309 313 312 316 318 319 321 326 329 328 326 323 320 320 320 318 316 316 318 315 316 321 328 nan nan nan nan nan
nan nan nan nan nan nan nan nan nan nan nan nan nan nan nan nan nan nan nan nan nan nan nan nan nan nan nan nan nan nan nan nan nan nan nan nan nan nan nan 283 282 285 288 286 286 288 291 295 295 296 298 301 301 297 295 300 301 297 301 309 314 315 317 319 321 323 326 327 324 319 316 317 317 314 313 317 318 317 314 325 324 nan nan nan 306 nan
nan nan nan nan nan nan nan nan nan nan nan nan nan nan nan nan nan nan nan nan nan nan nan nan nan nan nan nan nan nan nan nan nan nan nan nan nan nan nan 279 280 282 286 288 289 290 292 293 295 297 298 293 293 296 297 298 296 299 302 306 312 313 316 318 320 322 321 323 320 316 314 314 314 313 313 314 317 317 320 322 nan nan nan 304 300 nan
nan nan nan nan nan nan nan nan nan nan nan nan nan nan nan nan nan nan nan nan nan nan nan nan nan nan nan nan nan nan nan nan nan nan nan nan nan nan nan 273 281 283 285 287 287 290 286 285 286 288 288 292 295 297 297 295 295 296 299 306 310 311 313 315 319 322 322 319 314 311 311 312 313 313 314 316 319 319 322 322 nan nan nan 299 298 303
nan nan nan nan nan nan nan nan nan nan nan nan nan nan nan nan nan nan nan nan nan nan nan nan nan nan nan nan nan nan nan nan nan nan nan nan nan nan 252 257 259 264 270 274 268 271 274 277 280 284 288 291 293 294 294 295 295 295 298 304 306 309 311 315 318 318 317 315 311 309 308 309 311 313 313 314 319 323 nan nan nan nan nan 296 298 305
nan nan nan nan nan nan nan nan nan nan nan nan nan nan nan nan nan nan nan nan nan nan nan nan nan nan nan nan nan nan nan nan nan nan nan 236 244 nan 256 254 258 258 258 260 268 275 275 277 280 283 284 288 291 292 292 293 294 294 298 303 306 306 309 311 311 314 317 313 307 305 306 308 311 312 313 317 319 320 nan nan nan nan 294 295 300 nan
nan nan nan nan nan nan nan nan nan nan nan nan nan nan nan 217 nan nan nan nan nan nan nan nan nan nan nan nan nan nan nan nan nan nan 238 240 245 247 252 256 256 257 257 260 260 265 271 275 277 277 280 282 285 289 292 293 294 297 300 301 299 302 305 308 310 310 306 302 302 302 305 307 310 312 314 316 316 nan nan nan nan nan 306 305 nan nan
nan nan nan nan nan nan nan nan 217 nan 225 nan nan nan nan nan nan nan nan nan nan nan nan nan nan nan nan nan nan nan nan nan 249 244 243 246 248 246 247 251 256 258 260 260 262 266 268 269 272 274 276 278 282 286 289 290 291 291 292 294 298 302 301 299 298 300 299 297 300 302 305 306 309 312 312 313 312 311 nan nan nan nan 311 312 307 306
nan nan nan nan nan nan nan nan nan 224 228 223 214 218 nan nan nan nan nan nan 234 nan 240 nan nan nan nan nan nan nan 244 242 246 246 245 243 248 250 250 252 254 256 261 264 267 269 271 272 272 274 275 280 285 287 290 291 292 291 292 293 298 299 296 294 294 294 294 297 300 302 303 305 306 306 307 306 305 nan nan nan nan 304 306 307 304 306
nan nan nan nan nan nan nan nan nan 229 nan 221 nan nan nan nan nan nan nan nan 236 246 nan 246 250 250 251 248 246 248 245 242 245 249 249 248 251 250 249 251 255 260 263 264 263 264 268 269 272 276 281 285 286 288 290 291 292 292 292 294 294 291 290 289 291 292 292 295 298 299 301 302 302 302 300 298 301 301 nan nan nan 300 297 297 299 308
224 nan nan nan nan nan nan nan nan 216 nan nan nan nan nan nan nan nan nan nan nan nan nan nan 247 252 255 253 251 249 248 248 247 249 249 246 248 248 246 248 251 253 257 259 263 267 269 272 276 279 281 283 286 289 290 292 292 292 291 290 286 286 287 288 290 291 291 292 295 296 298 299 298 295 297 300 303 304 305 nan 305 292 279 283 297 308
nan nan nan nan nan nan nan nan nan 214 nan nan nan nan nan nan nan nan nan 239 240 235 235 245 252 255 257 255 250 250 250 250 252 248 247 241 241 241 245 250 256 258 261 264 267 269 270 274 277 280 281 284 287 289 290 289 289 289 288 286 285 287 288 289 290 291 292 293 295 296 296 296 297 299 302 303 302 303 307 nan nan 298 291 290 295 304
nan nan nan nan nan nan nan nan nan nan nan nan nan nan nan nan nan nan nan nan 237 238 236 243 247 251 251 252 254 248 253 256 255 251 248 245 244 243 245 248 251 257 262 266 268 270 274 276 278 281 283 284 287 289 289 286 286 287 288 286 287 288 289 290 292 293 294 295 297 298 298 298 300 303 306 306 306 306 299 302 nan 309 299 294 296 300
nan nan nan nan nan nan nan nan nan nan nan nan nan nan nan nan nan nan nan nan nan nan nan nan nan 235 239 242 247 251 250 nan 252 250 248 248 248 249 252 255 256 260 265 267 270 274 277 280 281 284 285 284 286 288 289 286 284 285 286 286 286 287 288 290 292 293 294 295 295 296 297 299 298 300 303 303 301 302 306 307 307 304 298 294 294 299
245 nan nan nan 247 nan nan 221 nan nan nan nan nan nan nan nan nan nan nan nan nan nan nan nan nan nan nan nan nan nan nan nan nan nan 252 256 260 261 264 267 268 267 267 269 271 275 278 281 283 285 286 286 287 286 286 285 285 284 284 284 286 285 286 287 289 290 291 293 294 296 298 298 303 303 300 299 299 303 305 299 293 294 296 299 300 299
236 nan 240 nan nan nan nan nan nan nan nan nan nan nan nan nan nan nan nan nan nan nan nan nan nan nan nan nan nan nan nan nan nan nan 256 258 263 266 266 268 272 273 274 277 276 277 281 283 285 286 286 286 285 282 282 283 282 282 284 284 283 284 285 285 286 288 292 294 295 296 298 300 300 299 297 291 nan 289 290 292 291 293 291 289 291 296
231 236 nan nan nan nan 256 nan nan nan nan nan nan nan nan nan nan nan nan nan nan nan nan nan nan nan nan nan nan nan nan nan nan nan nan nan 262 263 264 267 274 279 281 280 279 278 278 279 282 283 282 282 283 282 282 281 281 281 283 282 284 287 288 290 291 293 295 296 298 299 298 294 294 nan nan nan nan nan nan nan nan nan nan 291 287 289
233 nan nan nan nan nan nan 260 nan nan nan nan nan nan nan nan nan nan nan nan nan nan nan nan nan nan nan nan nan nan nan nan nan nan nan nan 256 262 269 271 273 275 276 277 274 272 273 276 278 280 281 282 282 282 281 280 280 281 282 284 287 290 292 293 293 295 296 295 293 293 296 294 293 nan nan nan nan nan nan nan nan nan 279 283 285 284